Weather History for Pleasanton, TX

Change the Weather History Date:

Saturday, November 17, 2012

  Actual Average Record
Temperature  
Mean Temperature 55 °F -  
Max Temperature 71 °F 68 °F 86 °F (2013)
Min Temperature 39 °F 50 °F 32 °F (2008)
Degree Days  
Heating Degree Days 10    
Growing Degree Days 5 (Base 50)    
Moisture  
Dew Point 35 °F    
Average Humidity 54    
Maximum Humidity 81    
Minimum Humidity 20    
Precipitation  
Precipitation 0.00 in - - ()
Sea Level Pressure  
Sea Level Pressure 30.32 in    
Wind  
Wind Speed 1 mph (NE)    
Max Wind Speed 7 mph    
Max Gust Speed -    
Visibility 9 miles    
Events Rain    
Averages and records for this station are not official NWS values.
T = Trace of Precipitation, MM = Missing Value Source: NWS Daily Summary

Daily Weather History Graph

Daily Weather History Graph

Search for Another Location

Airport:

Trip Planner

Search our weather history database for the weather conditions in past years. The results will help you decide how hot, cold, wet, or windy it might be!

Date:

Astronomy

Nov. 17, 2012 Rise Set
Actual Time 6:59 AM CST 5:38 PM CST
Civil Twilight 6:34 AM CST 6:03 PM CST
Nautical Twilight 6:05 AM CST 6:32 PM CST
Astronomical Twilight 5:37 AM CST 7:00 PM CST
Moon 10:45 AM CST (11/17) 9:48 PM CST (11/17)
Length of Visible Light 11h 29m
Length of Day
10h 39m
Waxing Crescent, 20% of the Moon is Illuminated
Nov 17
Waxing Crescent
Nov 20
First Quarter
Nov 28
Full
Dec 6
Last Quarter
Dec 13
New

Hourly Weather History & Observations

Time (CST) Temp. Windchill Dew Point Humidity Pressure Visibility Wind Dir Wind Speed Gust Speed Precip Events Conditions
12:15 AM 48.2 °F - 35.6 °F 62% 30.35 in 7.0 mi Calm Calm - N/A Rain Heavy Rain
12:35 AM 46.4 °F - 35.6 °F 66% 30.34 in 7.0 mi Calm Calm - N/A   Unknown
12:55 AM 44.6 °F - 35.6 °F 71% 30.34 in 10.0 mi Calm Calm - N/A   Unknown
1:15 AM 44.6 °F - 35.6 °F 71% 30.34 in 7.0 mi Calm Calm - N/A   Unknown
1:35 AM 46.4 °F - 35.6 °F 66% 30.34 in 10.0 mi Calm Calm - N/A   Unknown
1:55 AM 42.8 °F - 37.4 °F 81% 30.34 in 10.0 mi Calm Calm - N/A   Clear
2:15 AM 42.8 °F - 35.6 °F 76% 30.33 in 10.0 mi Calm Calm - N/A   Clear
2:35 AM 42.8 °F - 37.4 °F 81% 30.34 in 10.0 mi Calm Calm - N/A   Mostly Cloudy
2:55 AM 44.6 °F - 37.4 °F 76% 30.34 in 10.0 mi Calm Calm - N/A   Mostly Cloudy
3:15 AM 44.6 °F - 35.6 °F 71% 30.34 in 10.0 mi Calm Calm - N/A   Mostly Cloudy
3:35 AM 44.6 °F - 35.6 °F 71% 30.33 in 10.0 mi Calm Calm - N/A   Scattered Clouds
3:55 AM 44.6 °F - 35.6 °F 71% 30.33 in 10.0 mi Calm Calm - N/A   Clear
4:15 AM 44.6 °F - 33.8 °F 66% 30.32 in 10.0 mi Calm Calm - N/A   Mostly Cloudy
4:35 AM 42.8 °F - 37.4 °F 81% 30.33 in 10.0 mi Calm Calm - N/A   Mostly Cloudy
4:55 AM 44.6 °F 43.1 °F 35.6 °F 71% 30.34 in 10.0 mi West 3.5 mph - N/A   Scattered Clouds
5:15 AM 42.8 °F 41.1 °F 33.8 °F 70% 30.33 in 10.0 mi NW 3.5 mph - N/A   Clear
5:35 AM 42.8 °F - 33.8 °F 70% 30.34 in 10.0 mi Calm Calm - N/A   Clear
5:55 AM 41.0 °F - 33.8 °F 76% 30.33 in 10.0 mi Calm Calm - N/A   Clear
6:15 AM 39.2 °F - 33.8 °F 81% 30.33 in 10.0 mi Calm Calm - N/A   Clear
6:35 AM 42.8 °F 41.1 °F 33.8 °F 70% 30.34 in 10.0 mi North 3.5 mph - N/A   Clear
6:55 AM 42.8 °F 41.1 °F 33.8 °F 70% 30.34 in 10.0 mi NE 3.5 mph - N/A   Clear
7:15 AM 42.8 °F 40.1 °F 33.8 °F 70% 30.34 in 10.0 mi NNE 4.6 mph - N/A   Clear
7:35 AM 44.6 °F 43.1 °F 33.8 °F 66% 30.35 in 10.0 mi NNE 3.5 mph - N/A   Clear
7:55 AM 46.4 °F - 33.8 °F 62% 30.36 in 10.0 mi Calm Calm - N/A   Clear
8:15 AM 48.2 °F - 33.8 °F 58% 30.36 in 10.0 mi NNE 4.6 mph - N/A   Clear
8:35 AM 50.0 °F - 33.8 °F 54% 30.36 in 10.0 mi NE 5.8 mph - N/A   Clear
8:55 AM 51.8 °F - 35.6 °F 54% 30.37 in 10.0 mi NE 5.8 mph - N/A   Clear
9:15 AM 55.4 °F - 35.6 °F 47% 30.37 in 10.0 mi NE 5.8 mph - N/A   Clear
9:35 AM 57.2 °F - 35.6 °F 44% 30.38 in 10.0 mi ENE 4.6 mph - N/A   Clear
9:55 AM 60.8 °F - 35.6 °F 39% 30.39 in 10.0 mi ENE 5.8 mph - N/A   Clear
10:15 AM 60.8 °F - 35.6 °F 39% 30.38 in 7.0 mi NE 6.9 mph - N/A   Clear
10:35 AM 62.6 °F - 35.6 °F 37% 30.38 in 7.0 mi East 5.8 mph - N/A   Clear
11:55 AM 66.2 °F - 32.0 °F 28% 30.35 in 7.0 mi NE 5.8 mph - N/A   Clear
12:15 PM 68.0 °F - 32.0 °F 26% 30.34 in 7.0 mi Calm Calm - N/A   Clear
12:35 PM 68.0 °F - 32.0 °F 26% 30.32 in 7.0 mi East 3.5 mph - N/A   Clear
12:55 PM 69.8 °F - 32.0 °F 25% 30.32 in 10.0 mi NE 4.6 mph - N/A   Clear
1:15 PM 69.8 °F - 32.0 °F 25% 30.31 in 7.0 mi NE 4.6 mph - N/A   Clear
1:35 PM 69.8 °F - 32.0 °F 25% 30.30 in 10.0 mi NE 3.5 mph - N/A   Clear
1:55 PM 69.8 °F - 32.0 °F 25% 30.29 in 7.0 mi NE 4.6 mph - N/A   Clear
2:15 PM 71.6 °F - 32.0 °F 23% 30.29 in 7.0 mi North 4.6 mph - N/A   Clear
2:35 PM 69.8 °F - 30.2 °F 23% 30.28 in 10.0 mi Calm Calm - N/A   Clear
2:55 PM 69.8 °F - 28.4 °F 21% 30.27 in 7.0 mi Calm Calm - N/A   Clear
3:15 PM 71.6 °F - 28.4 °F 20% 30.28 in 7.0 mi East 5.8 mph - N/A   Clear
3:55 PM 69.8 °F - 28.4 °F 21% 30.27 in 10.0 mi ENE 4.6 mph - N/A   Clear
4:15 PM 69.8 °F - 30.2 °F 23% 30.27 in 10.0 mi East 3.5 mph - N/A   Clear
4:35 PM 69.8 °F - 30.2 °F 23% 30.27 in 10.0 mi East 5.8 mph - N/A   Clear
4:55 PM 69.8 °F - 30.2 °F 23% 30.26 in 7.0 mi ENE 3.5 mph - N/A   Clear
5:15 PM 68.0 °F - 32.0 °F 26% 30.26 in 5.0 mi East 4.6 mph - N/A   Haze
5:35 PM 64.4 °F - 32.0 °F 30% 30.26 in 7.0 mi Calm Calm - N/A   Clear
5:55 PM 60.8 °F - 32.0 °F 34% 30.26 in 7.0 mi Calm Calm - N/A   Clear
6:15 PM 57.2 °F - 33.8 °F 41% 30.27 in 7.0 mi Calm Calm - N/A   Clear
6:35 PM 55.4 °F - 35.6 °F 47% 30.27 in 7.0 mi Calm Calm - N/A   Clear
6:55 PM 53.6 °F - 37.4 °F 54% 30.28 in 10.0 mi Calm Calm - N/A   Clear
7:15 PM 51.8 °F - 35.6 °F 54% 30.28 in 10.0 mi Calm Calm - N/A   Clear
7:35 PM 51.8 °F - 35.6 °F 54% 30.28 in 10.0 mi Calm Calm - N/A   Clear
7:55 PM 51.8 °F - 37.4 °F 58% 30.28 in 10.0 mi Calm Calm - N/A   Clear
8:15 PM 50.0 °F - 37.4 °F 62% 30.29 in 10.0 mi Calm Calm - N/A   Clear
8:35 PM 50.0 °F - 37.4 °F 62% 30.29 in 10.0 mi Calm Calm - N/A   Clear
8:55 PM 50.0 °F - 37.4 °F 62% 30.30 in 10.0 mi Calm Calm - N/A   Clear
9:15 PM 46.4 °F - 37.4 °F 71% 30.29 in 10.0 mi Calm Calm - N/A   Clear
9:35 PM 50.0 °F - 37.4 °F 62% 30.29 in 10.0 mi Calm Calm - N/A   Clear
9:55 PM 50.0 °F - 39.2 °F 66% 30.29 in 10.0 mi Calm Calm - N/A   Clear
10:15 PM 50.0 °F - 39.2 °F 66% 30.29 in 10.0 mi Calm Calm - N/A   Clear
10:35 PM 50.0 °F - 41.0 °F 71% 30.29 in 10.0 mi Calm Calm - N/A   Clear
10:55 PM 50.0 °F - 41.0 °F 71% 30.30 in 10.0 mi Calm Calm - N/A   Clear
11:15 PM 50.0 °F - 41.0 °F 71% 30.30 in 10.0 mi Calm Calm - N/A   Clear
11:35 PM 48.2 °F - 41.0 °F 76% 30.29 in 10.0 mi Calm Calm - N/A   Clear
11:55 PM 48.2 °F - 41.0 °F 76% 30.29 in 10.0 mi Calm Calm - N/A   Clear